Location: Gaast
(52.9002°N, 5.8891°E)
Time: 18:44:12
(UTC+00:00)

Cosmos 2263 Rocket - Visible Passes

Search period start: 12 February 2026 00:00
Search period end: 22 February 2026 00:00
Orbit: 821 x 849 km, 71.0° (Epoch: 11 February)

Date Brightness Start Highest point End Pass type
(mag) Time Alt. Az. Time Alt. Az. Time Alt. Az.
12 Feb 4.6 02:07:34 18° NNE 02:07:34 18° NNE 02:11:01 10° ENE visible
12 Feb 3.0 03:49:16 24° NNW 03:52:33 49° NE 03:58:00 10° SE visible
12 Feb 2.7 05:31:08 10° NW 05:36:22 39° WSW 05:41:32 10° S visible
12 Feb 3.4 18:43:55 10° SSE 18:46:41 23° SE 18:46:41 23° SE visible
12 Feb 4.0 20:26:33 10° SW 20:28:28 22° SW 20:28:28 22° SW visible
13 Feb 4.7 01:51:15 16° NE 01:51:15 16° NE 01:53:37 10° ENE visible
13 Feb 3.1 03:32:57 30° N 03:35:18 46° NE 03:40:45 10° ESE visible
13 Feb 2.5 05:14:39 14° NW 05:19:13 42° WSW 05:24:29 10° S visible
13 Feb 3.1 18:26:56 10° SSE 18:31:33 26° ESE 18:31:44 26° E visible
13 Feb 2.9 20:09:19 10° SW 20:13:31 49° WSW 20:13:31 49° WSW visible
14 Feb 4.9 01:35:06 13° NE 01:35:06 13° NE 01:36:14 10° ENE visible
14 Feb 3.2 03:16:49 38° NNE 03:18:06 43° NE 03:23:28 10° ESE visible
14 Feb 2.4 04:58:32 20° NW 05:02:04 45° WSW 05:07:23 10° S visible
14 Feb 3.2 18:09:57 10° SSE 18:14:25 24° ESE 18:16:42 19° ENE visible
14 Feb 2.3 19:52:07 10° SW 19:57:48 74° WNW 19:58:28 66° N visible
14 Feb 4.6 21:38:14 10° W 21:40:15 18° WNW 21:40:15 18° WNW visible
15 Feb 3.3 03:00:54 41° NE 03:00:54 41° NE 03:06:11 10° ESE visible
15 Feb 2.3 04:42:38 31° WNW 04:44:54 49° WSW 04:50:18 10° S visible
15 Feb 3.3 17:53:00 10° SSE 17:57:18 23° ESE 18:01:29 10° NE visible
15 Feb 2.2 19:34:54 10° SW 19:40:36 79° WNW 19:43:15 34° NNE visible
15 Feb 4.2 21:20:52 10° W 21:25:01 24° NW 21:25:01 24° NW visible
16 Feb 3.7 02:45:16 32° E 02:45:16 32° E 02:48:54 10° ESE visible
16 Feb 2.2 04:27:01 49° W 04:27:45 52° WSW 04:33:11 10° S visible
16 Feb 3.4 17:36:04 10° SSE 17:40:11 21° E 17:44:18 10° NE visible
16 Feb 2.2 19:17:42 10° SSW 19:23:25 84° WNW 19:27:47 18° NNE visible
16 Feb 4.1 21:03:31 10° W 21:08:10 25° NW 21:09:31 23° NNW visible
17 Feb 4.3 02:29:54 19° E 02:29:54 19° E 02:31:36 10° ESE visible
17 Feb 2.5 04:11:40 48° SSW 04:11:40 48° SSW 04:16:05 10° S visible
17 Feb 4.0 05:53:26 10° W 05:53:26 10° W 05:54:16 10° WSW visible
17 Feb 3.5 17:19:09 10° SE 17:23:04 19° E 17:26:58 10° ENE visible
17 Feb 2.1 19:00:31 10° SSW 19:06:14 89° NW 19:11:58 10° NNE visible
17 Feb 4.1 20:46:10 10° W 20:50:54 26° NW 20:53:46 18° N visible
17 Feb 5.0 22:34:16 10° NW 22:35:30 12° NNW 22:35:30 12° NNW visible
18 Feb 3.5 03:56:32 26° S 03:56:32 26° S 03:58:57 10° SSE visible
18 Feb 2.1 18:43:20 10° SSW 18:49:02 85° ESE 18:54:47 10° NNE visible
18 Feb 4.0 20:28:49 10° W 20:33:39 27° NW 20:37:46 13° NNE visible
18 Feb 4.9 22:16:53 10° NW 22:19:28 13° NNW 22:19:28 13° NNW visible
19 Feb 4.4 03:41:32 11° SSE 03:41:32 11° SSE 03:41:49 10° SSE visible
19 Feb 2.1 18:26:10 10° SSW 18:31:51 80° ESE 18:37:35 10° NNE visible
19 Feb 4.0 20:11:29 10° W 20:16:24 29° NW 20:21:19 10° NNE visible
19 Feb 4.8 21:59:29 10° NW 22:02:20 14° NNW 22:03:15 13° N visible
20 Feb 2.2 18:09:00 10° SSW 18:14:40 75° ESE 18:20:23 10° NE visible
20 Feb 3.9 19:54:10 10° W 19:59:08 30° NW 20:04:09 10° NNE visible
20 Feb 4.8 21:42:06 10° NW 21:45:01 14° NNW 21:46:51 12° N visible
21 Feb 2.2 17:51:51 10° SSW 17:57:30 70° ESE 18:03:11 10° NE visible
21 Feb 3.9 19:36:50 10° WSW 19:41:54 32° NW 19:46:59 10° NNE visible
21 Feb 4.8 21:24:42 10° NW 21:27:43 14° NNW 21:30:22 11° NNE visible
21 Feb 5.1 23:11:26 10° NNW 23:12:02 11° NNW 23:12:02 11° NNW visible
